Other Public Products
Issued by NWS Grand Forks, ND

Home | Current Version | Previous Version | Graphics & Text | Print | Product List | Glossary On
Versions: 1 2 3 4 5 6 7 8 9 10 11 12 13 14 15 16 17 18 19 20 21 22 23 24 25 26 27 28 29 30 31 32 33 34 35 36 37 38 39 40 41 42 43 44 45 46 47 48 49 50
073
FPUS83 KFGF 221610
OPUFGF
PRAIRIE TO PINES WEATHER ROUNDUP
NATIONAL WEATHER SERVICE EASTERN NORTH DAKOTA/GRAND FORKS ND
1000 AM CST THU FEB 22 2018

 **SATELLITE DATA USED TO AUGMENT SKY COVER AT AUTOMATED STATIONS**
 *****  WEATHER ACROSS EASTERN NORTH DAKOTA  *****

CITY           SKY/WX    TMP DP  RH WIND       PRES   REMARKS
GRAND FORKS    FAIR       2  -3  80 S16       30.44S WCI -18
GRND FORKS AFB FAIR       4  -4  69 S10       30.42S WCI -12
GRND FORKS NWS   N/A      4  -1  81 SW12      30.42S WCI -12
BUXTON           N/A      5   5  97 S12         N/A  WCI -10
DEVILS LAKE    FAIR       1  -3  83 S7        30.34S WCI -12
FARGO          FAIR      11   3  70 S17       30.46S WCI  -6
WAHPETON ARPT  PTSUNNY   10   1  67 SE14      30.48F WCI  -5
$$

 *****  WEATHER ACROSS CENTRAL AND WESTERN NORTH DAKOTA  *****

CITY           SKY/WX    TMP DP  RH WIND       PRES   REMARKS
JAMESTOWN      FAIR       5   0  79 S6        30.35S WCI  -6
BISMARCK       FAIR       1  -6  72 CALM      30.33S
MINOT          FAIR       5  -5  63 S5        30.27R WCI  -4
MINOT AFB      FAIR       2  -7  66 SW5       30.26S WCI  -7
GARRISON         N/A     -5 -10  79 CALM      30.28R
WILLISTON      FAIR      -6 -12  75 SW3       30.26R
DICKINSON      FAIR       2  -7  66 SW3       30.18S
HETTINGER      FAIR     -13 -18  78 NW6       30.18F WCI -27
$$

 *****  OTHER OBSERVATIONS NORTHEAST NORTH DAKOTA  *****

CITY           SKY/WX    TMP DP  RH WIND       PRES   REMARKS
WALHALLA       FAIR       7   0  72 S6        30.36F WCI  -3
LANGDON        FAIR       3  -4  72 SW14      30.31R WCI -15
CAVALIER         N/A      1  -4  78 S10       30.38F WCI -14
GRAFTON        FAIR       1  -4  78 S15       30.45R WCI -18
CANDO          FAIR       1  -2  85 S5        30.34S WCI  -8
FORT TOTTEN    NOT AVBL
ROLLA          FAIR       0  -6  78 SW15      30.26S WCI -20
RUGBY          FAIR      -2  -8  78 S9        30.30S WCI -18
 ***** THE ABOVE OBSERVATIONS ARE NON NWS ARE NOT QUALITY
        CONTROLLED AND MAY MIS-REPORT RAIN FOR SNOW...
$$

 *****  OTHER OBSERVATIONS SOUTHEAST NORTH DAKOTA *****

CITY           SKY/WX    TMP DP  RH WIND       PRES   REMARKS
COOPERSTOWN    FAIR       5   1  85 S15       30.37S WCI -13
VALLEY CITY    FAIR       5   1  85 S9        30.39F WCI  -9
OAKES            N/A      7   1  78 S6        30.40S WCI  -3
GWINNER          N/A      9   3  78 CALM      30.42S
SHEYENNE NWR     N/A     12   3  67 S9        29.95S WCI   0
BUFFALO          N/A      7   0  72 NW9         N/A  WCI  -7
WYNDMERE       NOT AVBL
 ***** THE ABOVE OBSERVATIONS ARE NON NWS ARE NOT QUALITY
       CONTROLLED AND MAY MIS-REPORT RAIN FOR SNOW...
$$

  *****  WEATHER ACROSS NORTHERN MINNESOTA  *****

CITY           SKY/WX    TMP DP  RH WIND       PRES   REMARKS
FLAG ISLAND    FAIR      -2  -8  78 S8        30.44F WCI -17
WARROAD        FAIR       9   0  66 S8        30.43S WCI  -4
ROSEAU         FAIR       7   0  72 S5        30.43R WCI  -2
HALLOCK        FAIR       7   0  72 S20       30.42S WCI -13
THF RVR FALLS  FAIR       6  -2  69 S9        30.45  WCI  -8
HALSTAD        NOT AVBL
FOSSTON        FAIR      12   0  57 SW8       30.44R WCI   1
BAUDETTE       FAIR       7  -1  70 SE9       30.43F WCI  -7
WASKISH        FAIR      16   1  53 SE9G18    30.44F WCI   4
CROOKSTON      FAIR       9   1  72 S17       30.46S WCI -10
$$
  *****  WEATHER ACROSS CENTRAL AND WEST MINNESOTA  *****

CITY           SKY/WX    TMP DP  RH WIND       PRES   REMARKS
BEMIDJI        FAIR       6  -1  70 S6        30.45R WCI  -4
PARK RAPIDS    FAIR      10   2  69 S10       30.47R HAZE    WCI  -4
WADENA         FAIR      10   3  72 SE7       30.48S WCI   0
DETROIT LAKES  SNOW      14   5  67 S14G22    30.46S VSB 1/4 WCI  -1
MOORHEAD       FAIR       9   0  66 S16G23    30.47S WCI  -9
FERGUS FALLS   FAIR      12   3  67 S14       30.49S WCI  -3
ELBOW LAKE     CLOUDY    14   4  65 SE18      30.48S WCI  -3
MORRIS MN      CLOUDY    12   5  73 SE15      30.48S WCI  -4
STAPLES        FAIR      12   3  67 SE6       30.50F WCI   3
WHEATON        CLOUDY    14   7  73 SE15      30.50R WCI  -1
$$
  *****  WEATHER ELSEWHERE ACROSS MINNESOTA  *****

CITY           SKY/WX    TMP DP  RH WIND       PRES   REMARKS
DULUTH         FAIR      15   3  59 S6        30.55R WCI   6
INTRNTL FALLS  FAIR      10   1  67 S5        30.50F WCI   2
ELY            FAIR      12   0  57 SE5       30.53S WCI   4
CLOQUET        FAIR      14   1  57 S5        30.56R WCI   6
BRAINERD       FAIR      13   1  59 SE8       30.53S WCI   2
HIBBING        FAIR       7  -1  70 CALM      30.53F
ALEXANDRIA     CLOUDY    13   3  64 SE16      30.49F WCI  -3
SAINT CLOUD    CLOUDY    12   5  73 SE5       30.56F WCI   4
MINNEAPOLIS    CLOUDY    19  10  68 SE10      30.57S WCI   7
$$

  *****  WEATHER ACROSS SOUTH DAKOTA  *****

CITY           SKY/WX    TMP DP  RH WIND       PRES   REMARKS
SIOUX FALLS    CLOUDY    21  16  81 E8        30.42F WCI  11
BROOKINGS      CLOUDY    19  15  84 SE13      30.42F WCI   6
WATERTOWN      CLOUDY    18  12  77 S13       30.39F WCI   5
HURON          CLOUDY    19  14  81 SE13      30.40F WCI   6
SISSETON         N/A     11   6  81 SE12      30.45R WCI  -3
ABERDEEN       FAIR      11   4  73 S3        30.41S
MITCHELL       CLOUDY    21  16  81 SE12      30.40F WCI   9
PIERRE         FAIR      11   8  88 SE7       30.29F WCI   0
MOBRIDGE       FAIR      -3  -7  82 CALM      30.28S
RAPID CITY     FAIR       5  -2  72 CALM      30.13F
$$

  *****  SOME WEATHER IN NEARBY STATES *****

CITY           SKY/WX    TMP DP  RH WIND       PRES   REMARKS
GLASGOW MT     FAIR     -18 -23  77 NW6       30.23R WCI -33
GREAT FALLS MT FAIR       1  -7  68 W5        30.13R WCI  -9
CHEYENNE WY    PTSUNNY   14   8  77 W6        29.94F WCI   5
SCOTTSBLUFF NE CLOUDY    16  12  84 SE3       30.10S
OMAHA NE       FLURRIES  26  21  81 SE10      30.42R WCI  16
DES MOINES IA  FLURRIES  26  21  81 E12       30.44S WCI  16
DAVENPORT IA   CLOUDY    32  24  72 E14       30.51F WCI  22
CHICAGO IL     PTSUNNY   37  29  72 E14       30.54F
EAU CLAIRE WI  PTSUNNY   18   7  62 E6        30.59F WCI  10
LA CROSSE WI   CLOUDY    25  16  68 E7        30.59F WCI  17
$$

  *****  SOME NATIONAL WEATHER *****

CITY           SKY/WX    TMP DP  RH WIND       PRES   REMARKS
LA GUARDIA NY  CLOUDY    46  35  65 NE15      30.59F
RALEIGH NC     CLOUDY    69  63  81 SW14      30.48S
ATLANTA GA     FAIR      72  65  78 SE7       30.46S
NEW ORLEANS LA FAIR      79  71  76 S15G23    30.31R
OKLAHOMA CITY  CLOUDY    29  28  96 NE15      30.24F FOG     WCI  18
ALBUQUERQUE NM PTSUNNY   33  19  56 N6        30.07R
SALT LAKE CITY PTSUNNY   27  15  61 SE8       29.98S WCI  19
LOS ANGELES CA FAIR      49  32  52 E8        30.23R
BOISE ID       LGT SNOW  24  22  91 NW9       29.97R FOG     WCI  14
SEATTLE WA     FAIR      26  21  81 N9        30.26R WCI  17
$$

*** WEATHER ACROSS MANITOBA...SASKATCHEWAN AND ONTARIO ***
                ***ONTARIO***

CITY           SKY/WX    TMP DP  RH WIND       PRES   REMARKS
GERALDTON      MOSUNNY   10   0  61 SW10      30.57S WCI  -3
THUNDER BAY    MOSUNNY    9   1  72 SE5       30.65S WCI   0
SIOUX LOOKOUT  MOSUNNY    5  -4  66 S6        30.48F WCI  -6
TORONTO        CLOUDY    30  23  74 E7        30.67R WCI  23
BIG TROUT LK   SUNNY     -2  -9  71 SW12      30.28F WCI -20
PICKLE LAKE    MOSUNNY    5  -4  66 SW7       30.43S WCI  -7
DRYDEN         SUNNY      5  -2  72 S8        30.45F WCI  -8
KENORA         NOT AVBL
$$
                *** MANITOBA***

CITY           SKY/WX    TMP DP  RH WIND       PRES   REMARKS
BRANDON        MOSUNNY   -4  -9  77 NW5       30.28S WCI -15
DAUPHIN        SUNNY      5  -4  66 W9        30.24S WCI  -9
ISLAND LAKE    SUNNY      3  -8  60 S3        30.16F
PILOT MOUND      N/A      0  -4  85 S13         N/A  WCI -18
THE PAS        MOSUNNY    7  -6  56 SW12G17   30.03S WCI  -9
THOMPSON       PTSUNNY    1  -8  66 SW14G22   29.88F WCI -17
WINNIPEG       SUNNY      5  -2  72 S12       30.38F WCI -11
LYNN LAKE      CLOUDY     7   1  78 W14G20    29.73S WCI -10
CHURCHILL      LGT SNOW   0  -6  78 SW20G26   29.68F BLWGSNOWWCI -22
GILLAM         PTSUNNY    1  -9  60 SW21G26   29.87F WCI -20
$$
                ***SASKATCHEWAN***

CITY           SKY/WX    TMP DP  RH WIND       PRES   REMARKS
ESTEVAN        MOSUNNY    0  -9  65 S10       30.22R WCI -17
KINDERSLEY     PTSUNNY   -6 -11  77 W5        30.15R WCI -17
LLOYDMINSTER   PTSUNNY   10   7  85 W13       30.10R WCI  -5
PRINCE ALBERT  MOSUNNY   -6 -13  71 SW7       30.13R WCI -20
REGINA         MOSUNNY   -6 -11  77 S8        30.18S WCI -21
YORKTON        SUNNY     -2  -9  71 SW14      30.17R W



USA.gov is the U.S. government's official web portal to all federal, state and local government web resources and services.